Grand Rapids, MI

1:28 AM EDT on September 25, 2016 (GMT -0400)
Gerald R. Ford International

Weather History for KGRR - December, 2012

Change the Weather History Date:

Monday, December 3, 2012

  Actual Average Record
Temperature  
Mean Temperature 50 °F 33 °F  
Max Temperature 65 °F 39 °F 65 °F (2012)
Min Temperature 35 °F 27 °F -6 °F (1976)
Degree Days  
Heating Degree Days 15 32  
Month to date heating degree days 49 94  
Since 1 July heating degree days 1358 1432  
Cooling Degree Days 0 0  
Month to date cooling degree days 0 0  
Year to date cooling degree days 1039 699  
Moisture  
Dew Point 50 °F    
Average Humidity 89    
Maximum Humidity 100    
Minimum Humidity 78    
Precipitation  
Precipitation 0.02 in 0.09 in 1.37 in (1982)
Month to date precipitation 0.36 0.28  
Year to date precipitation 31.36 36.05  
Snow  
Snow 0.00 in 0.60 in 4.00 in (1996)
Month to date snowfall 0.0 1.6  
Since 1 July snowfall 0.3 8.9  
Snow Depth 0.00 in    
Sea Level Pressure  
Sea Level Pressure 29.99 in    
Wind  
Wind Speed 11 mph (SE)    
Max Wind Speed 25 mph    
Max Gust Speed 33 mph    
Visibility 4 miles    
Events Fog , Rain    
T = Trace of Precipitation, MM = Missing Value Source: NWS Daily Summary

Daily Weather History Graph

Daily Weather History Graph

Search for Another Location

Airport or City:

Trip Planner

Search our weather history database for the weather conditions in past years. The results will help you decide how hot, cold, wet, or windy it might be!

Date:

Astronomy

Dec. 03, 2012 Rise Set
Actual Time 7:55 AM EST 5:08 PM EST
Civil Twilight 7:24 AM EST 5:40 PM EST
Nautical Twilight 6:48 AM EST 6:15 PM EST
Astronomical Twilight 6:14 AM EST 6:49 PM EST
Moon 9:58 PM EST (12/3) 11:15 AM EST (12/3)
Length of Visible Light 10h 16m
Length of Day
9h 12m
Waning Gibbous, 78% of the Moon is Illuminated
Dec 3
Waning Gibbous
Dec 6
Last Quarter
Dec 13
New
Dec 20
First Quarter
Dec 28
Full

Hourly Weather History & Observations

Time (EST) Temp. Windchill Dew Point Humidity Pressure Visibility Wind Dir Wind Speed Gust Speed Precip Events Conditions
12:53 AM 35.1 °F 32.2 °F 34.0 °F 96% 30.11 in 0.2 mi SE 3.5 mph - N/A Fog Fog
1:53 AM 37.0 °F 34.5 °F 36.0 °F 96% 30.10 in 0.2 mi East 3.5 mph - N/A Fog Fog
2:53 AM 37.9 °F 34.4 °F 37.0 °F 97% 30.10 in 0.2 mi ESE 4.6 mph - N/A Fog Fog
3:42 AM 37.4 °F 34.9 °F 37.4 °F 100% 30.09 in 0.2 mi ENE 3.5 mph - N/A Fog Fog
3:53 AM 39.0 °F 35.7 °F 37.9 °F 96% 30.10 in 0.2 mi East 4.6 mph - N/A Fog Fog
4:01 AM 39.2 °F 37.0 °F 39.2 °F 100% 30.08 in 0.5 mi East 3.5 mph - N/A Fog Fog
4:13 AM 41.0 °F 37.1 °F 39.2 °F 93% 30.08 in 1.8 mi ESE 5.8 mph - N/A   Overcast
4:20 AM 41.0 °F 38.0 °F 39.2 °F 93% 30.08 in 2.0 mi ESE 4.6 mph - N/A   Overcast
4:28 AM 42.8 °F 41.1 °F 39.2 °F 87% 30.08 in 2.5 mi ENE 3.5 mph - N/A   Overcast
4:53 AM 43.0 °F 40.3 °F 41.0 °F 93% 30.09 in 2.5 mi East 4.6 mph - N/A   Overcast
5:27 AM 44.6 °F 41.4 °F 42.8 °F 93% 30.06 in 1.8 mi East 5.8 mph - N/A   Overcast
5:45 AM 44.6 °F 43.1 °F 42.8 °F 93% 30.06 in 0.5 mi East 3.5 mph - N/A Fog Fog
5:53 AM 45.0 °F 42.6 °F 44.1 °F 97% 30.07 in 0.5 mi ENE 4.6 mph - N/A Fog Fog
6:03 AM 46.4 °F 44.3 °F 44.6 °F 93% 30.05 in 0.2 mi East 4.6 mph - N/A Fog Fog
6:32 AM 46.4 °F 43.5 °F 44.6 °F 93% 30.05 in 0.2 mi ESE 5.8 mph - N/A Fog Fog
6:43 AM 46.4 °F 43.5 °F 46.4 °F 100% 30.05 in 0.2 mi SE 5.8 mph - N/A Fog Fog
6:53 AM 46.9 °F - 46.0 °F 97% 30.06 in 0.2 mi SE 5.8 mph - N/A Fog Fog
7:35 AM 48.2 °F - 48.2 °F 100% 30.05 in 0.2 mi SSE 6.9 mph - N/A Fog Fog
7:53 AM 50.0 °F - 48.9 °F 96% 30.06 in 0.2 mi SSE 8.1 mph - N/A Fog Fog
8:09 AM 51.8 °F - 48.2 °F 88% 30.04 in 0.5 mi SE 9.2 mph - N/A Fog Fog
8:20 AM 51.8 °F - 50.0 °F 94% 30.04 in 0.2 mi SE 8.1 mph - N/A Fog Fog
8:42 AM 51.8 °F - 51.8 °F 100% 30.04 in 0.5 mi SSE 8.1 mph - N/A Fog Fog
8:53 AM 52.0 °F - 51.1 °F 97% 30.05 in 0.8 mi SE 8.1 mph - N/A   Overcast
9:32 AM 53.6 °F - 51.8 °F 94% 30.04 in 1.2 mi SE 8.1 mph - N/A   Overcast
9:53 AM 53.6 °F - 51.8 °F 94% 30.03 in 1.8 mi SE 10.4 mph - N/A   Overcast
10:35 AM 55.4 °F - 53.6 °F 94% 30.02 in 2.0 mi SSE 10.4 mph - N/A   Overcast
10:53 AM 55.9 °F - 54.0 °F 93% 30.03 in 2.5 mi SE 9.2 mph - N/A   Overcast
11:20 AM 55.4 °F - 55.4 °F 100% 30.00 in 3.0 mi SSE 10.4 mph - N/A   Overcast
11:53 AM 57.0 °F - 55.0 °F 93% 29.99 in 4.0 mi SSE 15.0 mph - N/A   Overcast
12:53 PM 60.1 °F - 55.9 °F 86% 29.95 in 5.0 mi South 13.8 mph - N/A   Overcast
1:53 PM 60.8 °F - 57.2 °F 88% 29.92 in 5.0 mi South 12.7 mph - N/A   Overcast
2:53 PM 61.0 °F - 57.9 °F 90% 29.91 in 6.0 mi South 15.0 mph - 0.00 in   Light Drizzle
3:53 PM 62.1 °F - 57.9 °F 86% 29.89 in 7.0 mi South 13.8 mph - 0.00 in   Overcast
4:44 PM 62.6 °F - 57.2 °F 82% 29.87 in 7.0 mi South 18.4 mph - N/A   Overcast
4:53 PM 62.1 °F - 57.9 °F 86% 29.87 in 7.0 mi South 18.4 mph 24.2 mph N/A   Mostly Cloudy
5:29 PM 62.6 °F - 57.2 °F 82% 29.85 in 9.0 mi South 16.1 mph - N/A   Overcast
5:53 PM 62.1 °F - 57.9 °F 86% 29.86 in 8.0 mi South 13.8 mph - 0.01 in   Overcast
6:17 PM 62.6 °F - 57.2 °F 82% 29.85 in 8.0 mi South 15.0 mph - N/A   Mostly Cloudy
6:35 PM 62.6 °F - 57.2 °F 82% 29.85 in 9.0 mi South 16.1 mph - N/A   Scattered Clouds
6:53 PM 63.0 °F - 57.9 °F 84% 29.86 in 9.0 mi South 15.0 mph - N/A   Mostly Cloudy
7:53 PM 64.0 °F - 57.9 °F 80% 29.85 in 10.0 mi South 17.3 mph - N/A   Mostly Cloudy
8:53 PM 63.0 °F - 57.9 °F 84% 29.83 in 10.0 mi South 17.3 mph 25.3 mph N/A   Scattered Clouds
9:53 PM 64.0 °F - 57.0 °F 78% 29.83 in 10.0 mi SSW 16.1 mph 26.5 mph N/A   Overcast
10:53 PM 64.9 °F - 55.9 °F 73% 29.82 in 10.0 mi SSW 17.3 mph 25.3 mph 0.00 in Rain Light Rain
11:39 PM 64.4 °F - 55.4 °F 73% 29.83 in 10.0 mi SSW 18.4 mph 26.5 mph 0.00 in   Overcast
11:53 PM 64.0 °F - 55.0 °F 73% 29.82 in 10.0 mi SSW 20.7 mph 26.5 mph 0.00 in   Mostly Cloudy